Location: Artiguedieu
(43.5000°N, 0.5454°E)
Time: 10:32:52
(UTC+00:00)

Vanguard 1 Rocket - Pass Details

Date: 03 August 2021
Orbit: 650 x 4226 km, 34.3° (Epoch: 24 September)

Event Time Altitude Azimuth Distance (km) Brightness Sun altitude
Rises 06:40:36 0° 202° (SSW) 8,439 12.0 18.4°
Reaches altitude 10° 06:48:11 10° 192° (SSW) 7,398 11.9 19.8°
Maximum altitude 07:06:31 27° 145° (SE) 5,291 11.9 23.1°
Drops below altitude 10° 07:19:53 10° 96° (E) 5,433 13.2 25.5°
Sets 07:24:09 0° 85° (E) 5,956 12.9 26.3°
